Home > Weather > Istanbul > Past weeks

Flag for Turkey Past Weather in Istanbul, Turkey — Yesterday and Last 2 Weeks

Now
84 °F

Passing clouds.


Feels Like: 84 °F
Forecast: 75 / 86 °F
Wind: 17 mph from Northeast

Location: Istanbul Ataturk Airport

Current Time: Jul 28, 2016 at 11:55:12 AM

Latest Report: Jul 28, 2016 at 10:50 AM


Visibility: N/A

Pressure: 29.92 "Hg

Humidity: 43%

Dew Point: 59 °F

Location of IstanbulLocation

Past Weather in Istanbul — Graph

°F

Istanbul Temperature Yesterday

Maximum temperature yesterday: 86 °F (at 11:20 AM)
Minimum temperature yesterday: 75 °F (at 1:20 AM)
Average temperature yesterday: 80 °F

High & Low Weather Summary for the Past Weeks

 TemperatureHumidityPressure
High95 °F (Jul 16, 5:20 PM)89% (Jul 17, 5:50 AM)30.01 "Hg (Jul 17, 5:50 AM)
Low68 °F (Jul 21, 6:20 AM)19% (Jul 22, 5:50 PM)29.74 "Hg (Jul 14, 8:20 PM)
Average79 °F55%29.88 "Hg
* Reported Jul 13 10:20 AM — Jul 28 10:20 AM, Istanbul, Weather by CustomWeather, © 2016

Note: Actual official high and low records may vary slightly from our data, if they occured in-between our weather recording intervals... More about our weather records

Advertising

Istanbul Weather History for the Previous 24 Hours

Scroll right to see more
 ConditionsComfort  
Time TempWeatherWind HumidityBarometerVisibility
10:20 AM
Thu, Jul 28
86 °FPassing clouds.14 mph43%29.92 "HgN/A
9:50 AM82 °FPassing clouds.15 mph48%29.92 "HgN/A
9:20 AM82 °FPassing clouds.15 mph55%29.92 "HgN/A
8:50 AM82 °FPassing clouds.14 mph55%29.92 "HgN/A
8:20 AM79 °FPassing clouds.14 mph65%29.92 "HgN/A
7:50 AM79 °FPassing clouds.8 mph70%29.92 "HgN/A
7:20 AM77 °FPassing clouds.10 mph74%29.92 "HgN/A
6:50 AM77 °FPassing clouds.10 mph74%29.92 "HgN/A
6:20 AM77 °FPassing clouds.8 mph79%29.92 "HgN/A
5:50 AM75 °FPassing clouds.10 mph78%29.92 "HgN/A
5:20 AM77 °FPassing clouds.10 mph74%29.92 "HgN/A
4:50 AM75 °FClear.10 mph78%29.92 "Hg10 mi
4:20 AM77 °FClear.10 mph74%29.89 "Hg10 mi
3:50 AM75 °FPassing clouds.9 mph78%29.89 "HgN/A
3:20 AM77 °FClear.9 mph74%29.89 "Hg10 mi
2:50 AM77 °FClear.10 mph74%29.89 "Hg10 mi
2:20 AM77 °FClear.9 mph74%29.89 "Hg10 mi
1:50 AM77 °FPassing clouds.9 mph74%29.89 "HgN/A
1:20 AM77 °FClear.9 mph74%29.89 "Hg10 mi
12:50 AM77 °FPassing clouds.10 mph74%29.89 "HgN/A
12:20 AM77 °FPassing clouds.14 mph74%29.89 "HgN/A
11:50 PM
Wed, Jul 27
77 °FClear.13 mph74%29.89 "Hg10 mi
11:20 PM77 °FPassing clouds.14 mph74%29.89 "HgN/A
10:50 PM77 °FPassing clouds.14 mph69%29.89 "HgN/A
10:20 PM79 °FPassing clouds.14 mph65%29.89 "HgN/A
9:50 PM79 °FPassing clouds.14 mph70%29.89 "HgN/A
9:20 PM81 °FPassing clouds.13 mph62%29.92 "HgN/A
8:50 PM81 °FPassing clouds.13 mph62%29.89 "HgN/A
8:20 PM81 °FPassing clouds.13 mph62%29.89 "HgN/A
7:50 PM82 °FPassing clouds.9 mph58%29.89 "HgN/A
7:20 PM81 °FScattered clouds.18 mph58%29.89 "HgN/A
6:50 PM82 °FScattered clouds.18 mph55%29.89 "HgN/A
6:20 PM82 °FScattered clouds.20 mph51%29.89 "HgN/A
5:50 PM84 °FScattered clouds.20 mph48%29.86 "HgN/A
5:20 PM84 °FScattered clouds.20 mph48%29.89 "HgN/A
4:50 PM84 °FScattered clouds.16 mph45%29.89 "HgN/A
4:20 PM84 °FScattered clouds.21 mph45%29.89 "HgN/A
3:50 PM84 °FScattered clouds.16 mph48%29.89 "HgN/A
3:20 PM84 °FScattered clouds.17 mph48%29.89 "HgN/A
2:50 PM86 °FScattered clouds.17 mph46%29.89 "HgN/A
2:20 PM84 °FScattered clouds.18 mph51%29.89 "HgN/A
1:50 PM86 °FScattered clouds.17 mph49%29.89 "HgN/A
1:20 PM86 °FScattered clouds.17 mph49%29.89 "HgN/A
12:50 PM86 °FScattered clouds.18 mph43%29.89 "HgN/A
12:20 PM84 °FScattered clouds.17 mph48%29.89 "HgN/A
11:50 AM84 °FScattered clouds.16 mph51%29.89 "HgN/A
11:20 AM86 °FScattered clouds.17 mph49%29.89 "HgN/A
Weather by CustomWeather, © 2016

See weather overviewHow to use our weather pages